Alexandria, MN

1:44 PM CST on December 05, 2019 (GMT -0600)
Chandler

Weather History for KAXN - October, 2019

Change the Weather History Date:

Sunday, October 6, 2019

  Actual Average Record
Temperature  
Mean Temperature 52 °F -  
Max Temperature 61 °F 58 °F 86 °F (1993)
Min Temperature 44 °F 37 °F 21 °F (2001)
Degree Days  
Heating Degree Days 13    
Growing Degree Days 2 (Base 50)    
Moisture  
Dew Point 40 °F    
Average Humidity 65    
Maximum Humidity 80    
Minimum Humidity 46    
Precipitation  
Precipitation 0.01 in - - ()
Sea Level Pressure  
Sea Level Pressure 29.95 in    
Wind  
Wind Speed 13 mph ()    
Max Wind Speed 26 mph    
Max Gust Speed 37 mph    
Visibility 10.0 miles    
Events      
Averages and records for this station are not official NWS values.
T = Trace of Precipitation, MM = Missing Value Source: Averaged Metar Reports

Daily Weather History Graph

Daily Weather History Graph

Search for Another Location

Airport or City:

Astronomy

Oct. 06, 2019 Rise Set
Actual Time 7:26 AM CDT 6:52 PM CDT
Civil Twilight 6:56 AM CDT 7:22 PM CDT
Nautical Twilight 6:21 AM CDT 7:56 PM CDT
Astronomical Twilight 5:46 AM CDT 8:31 PM CDT
Moon 3:55 PM CDT (10/6) 12:01 AM CDT (10/6)
Length of Visible Light 12h 25m
Length of Day
11h 26m
First Quarter, 60% of the Moon is Illuminated
Oct 6
First Quarter
Oct 13
Full
Oct 21
Last Quarter
Oct 27
New
Nov 4
First Quarter

Hourly Weather History & Observations

Time (CDT) Temp. Windchill Dew Point Humidity Pressure Visibility Wind Dir Wind Speed Gust Speed Precip Events Conditions
12:53 AM 48.0 °F - 42.1 °F 80% 29.82 in 10.0 mi West 12.7 mph - N/A   Scattered Clouds
1:53 AM 46.9 °F - 39.9 °F 77% 29.83 in 10.0 mi WSW 12.7 mph - N/A   Partly Cloudy
2:53 AM 46.9 °F - 39.0 °F 74% 29.84 in 10.0 mi WSW 11.5 mph - N/A   Clear
3:53 AM 46.0 °F 40.6 °F 39.0 °F 76% 29.85 in 10.0 mi WSW 11.5 mph - N/A   Clear
4:53 AM 46.0 °F 40.2 °F 37.9 °F 73% 29.87 in 10.0 mi West 12.7 mph 24.2 mph N/A   Clear
5:53 AM 45.0 °F 38.9 °F 37.9 °F 76% 29.89 in 10.0 mi WSW 12.7 mph - N/A   Clear
6:53 AM 44.1 °F 37.7 °F 37.0 °F 76% 29.90 in 10.0 mi WSW 12.7 mph - N/A   Clear
7:53 AM 44.1 °F 37.4 °F 37.0 °F 76% 29.91 in 10.0 mi WSW 13.8 mph - N/A   Clear
8:53 AM 46.9 °F - 37.9 °F 71% 29.93 in 10.0 mi West 20.7 mph 29.9 mph N/A   Clear
9:53 AM 50.0 °F - 39.0 °F 66% 29.94 in 10.0 mi West 21.9 mph 29.9 mph N/A   Clear
10:53 AM 53.1 °F - 41.0 °F 64% 29.96 in 10.0 mi West 19.6 mph 28.8 mph N/A   Mostly Cloudy
11:53 AM 55.9 °F - 41.0 °F 57% 29.96 in 10.0 mi West 23.0 mph 36.8 mph N/A   Partly Cloudy
12:53 PM 57.0 °F - 41.0 °F 55% 29.97 in 10.0 mi West 26.5 mph 35.7 mph N/A   Scattered Clouds
1:53 PM 55.9 °F - 41.0 °F 57% 29.97 in 10.0 mi WNW 15.0 mph 33.4 mph N/A   Overcast
2:53 PM 60.1 °F - 42.1 °F 51% 29.96 in 10.0 mi West 19.6 mph 28.8 mph N/A   Overcast
3:53 PM 57.0 °F - 39.9 °F 53% 29.97 in 10.0 mi West 16.1 mph 28.8 mph N/A   Overcast
4:53 PM 55.9 °F - 42.1 °F 60% 29.97 in 10.0 mi West 12.7 mph 27.6 mph 0.00 in   Mostly Cloudy
5:53 PM 57.9 °F - 37.0 °F 46% 29.98 in 10.0 mi WNW 19.6 mph 34.5 mph N/A   Mostly Cloudy
6:53 PM 57.0 °F - 37.9 °F 49% 30.00 in 10.0 mi West 16.1 mph 25.3 mph N/A   Overcast
7:53 PM 54.0 °F - 39.9 °F 59% 30.02 in 10.0 mi West 8.1 mph - N/A   Overcast
8:53 PM 51.1 °F - 41.0 °F 68% 30.03 in 10.0 mi West 4.6 mph - 0.01 in   Mostly Cloudy
9:53 PM 50.0 °F - 41.0 °F 71% 30.04 in 10.0 mi West 6.9 mph - N/A   Overcast
10:53 PM 50.0 °F - 39.9 °F 68% 30.05 in 10.0 mi West 8.1 mph - N/A   Partly Cloudy
11:53 PM 50.0 °F - 39.9 °F 68% 30.07 in 10.0 mi West 11.5 mph - N/A   Scattered Clouds